| time (UTC) | temp F | wind direction | speed MPH | gust MPH | rain 1hr in | rain 24hr in | rain mn in | humidity % | barometer mb |
| 20260507182307 | 71 | 49 | 0.0 | 1.0 | 0.00 | 0.00 | 0.00 | 21 | 1025.9 |
| 20260507181802 | 71 | 97 | 0.0 | 1.0 | 0.00 | 0.00 | 0.00 | 23 | 1025.9 |
| 20260507181258 | 71 | 34 | 0.0 | 1.0 | 0.00 | 0.00 | 0.00 | 23 | 1025.9 |
| 20260507181248 | 71 | 64 | 0.0 | 1.0 | 0.00 | 0.00 | 0.00 | 23 | 1025.9 |
| 20260507180852 | 71 | 6 | 0.0 | 1.0 | 0.00 | 0.00 | 0.00 | 24 | 1025.9 |
| 20260507175743 | 71 | 322 | 0.0 | 1.0 | 0.00 | 0.00 | 0.00 | 25 | 1025.9 |
| 20260507175238 | 71 | 171 | 0.0 | 1.0 | 0.00 | 0.00 | 0.00 | 24 | 1025.9 |
| 20260507175233 | 71 | 230 | 0.0 | 1.0 | 0.00 | 0.00 | 0.00 | 26 | 1025.9 |
| 20260507174228 | 71 | 44 | 0.0 | 1.0 | 0.00 | 0.00 | 0.00 | 23 | 1025.9 |
| 20260507173723 | 71 | 74 | 0.0 | 0.0 | 0.00 | 0.00 | 0.00 | 23 | 1025.9 |
| 20260507173718 | 71 | 192 | 0.0 | 0.0 | 0.00 | 0.00 | 0.00 | 22 | 1025.9 |
| 20260507172713 | 71 | 252 | 0.0 | 0.0 | 0.00 | 0.00 | 0.00 | 23 | 1025.9 |
| 20260507172207 | 71 | 318 | 0.0 | 0.0 | 0.00 | 0.00 | 0.00 | 24 | 1025.9 |
| 20260507171702 | 71 | 221 | 0.0 | 0.0 | 0.00 | 0.00 | 0.00 | 23 | 1025.9 |
| 20260507171158 | 72 | 191 | 0.0 | 0.0 | 0.00 | 0.00 | 0.00 | 25 | 1025.9 |
| 20260507170651 | 72 | 165 | 0.0 | 0.0 | 0.00 | 0.00 | 0.00 | 25 | 1025.9 |
| 20260507170146 | 73 | 255 | 0.0 | 0.0 | 0.00 | 0.00 | 0.00 | 24 | 1025.9 |
| 20260507165642 | 73 | 111 | 0.0 | 0.0 | 0.00 | 0.00 | 0.00 | 21 | 1025.9 |
| 20260507165137 | 73 | 215 | 0.0 | 0.0 | 0.00 | 0.00 | 0.00 | 22 | 1026.3 |
| 20260507165132 | 72 | 200 | 0.0 | 0.0 | 0.00 | 0.00 | 0.00 | 21 | 1026.3 |
| 20260507164127 | 72 | 179 | 0.0 | 0.0 | 0.00 | 0.00 | 0.00 | 22 | 1025.9 |
| 20260507163622 | 71 | 220 | 0.0 | 0.0 | 0.00 | 0.00 | 0.00 | 19 | 1026.3 |
| 20260507163116 | 71 | 217 | 0.0 | 0.0 | 0.00 | 0.00 | 0.00 | 22 | 1025.9 |
| 20260507162613 | 70 | 225 | 0.0 | 0.0 | 0.00 | 0.00 | 0.00 | 20 | 1025.9 |
| 20260507162106 | 70 | 313 | 0.0 | 0.0 | 0.00 | 0.00 | 0.00 | 23 | 1025.9 |
| 20260507161602 | 70 | 188 | 0.0 | 0.0 | 0.00 | 0.00 | 0.00 | 24 | 1026.3 |
| 20260507161057 | 69 | 177 | 0.0 | 0.0 | 0.00 | 0.00 | 0.00 | 20 | 1025.9 |
| 20260507161051 | 69 | 251 | 0.0 | 0.0 | 0.00 | 0.00 | 0.00 | 22 | 1025.9 |
| 20260507160047 | 69 | 233 | 0.0 | 0.0 | 0.00 | 0.00 | 0.00 | 21 | 1025.9 |
| 20260507155545 | 68 | 192 | 0.0 | 0.0 | 0.00 | 0.00 | 0.00 | 21 | 1025.9 |
| 20260507155538 | 67 | 104 | 0.0 | 0.0 | 0.00 | 0.00 | 0.00 | 25 | 1025.9 |
| 20260507155032 | 68 | 229 | 0.0 | 0.0 | 0.00 | 0.00 | 0.00 | 23 | 1025.9 |
| 20260507154028 | 68 | 298 | 0.0 | 0.0 | 0.00 | 0.00 | 0.00 | 27 | 1026.3 |
| 20260507154022 | 68 | 213 | 0.0 | 0.0 | 0.00 | 0.00 | 0.00 | 23 | 1026.3 |
| 20260507153015 | 67 | 186 | 0.0 | 0.0 | 0.00 | 0.00 | 0.00 | 26 | 1025.9 |
| 20260507152514 | 67 | 208 | 0.0 | 0.0 | 0.00 | 0.00 | 0.00 | 29 | 1025.9 |
| 20260507152508 | 67 | 318 | 0.0 | 0.0 | 0.00 | 0.00 | 0.00 | 22 | 1026.3 |
| 20260507151501 | 66 | 188 | 0.0 | 0.0 | 0.00 | 0.00 | 0.00 | 20 | 1026.3 |
| 20260507150958 | 64 | 232 | 0.0 | 0.0 | 0.00 | 0.00 | 0.00 | 22 | 1026.3 |
| 20260507150450 | 63 | 240 | 0.0 | 0.0 | 0.00 | 0.00 | 0.00 | 27 | 1026.3 |
| 20260507145945 | 62 | 241 | 0.0 | 0.0 | 0.00 | 0.00 | 0.00 | 27 | 1026.3 |
| 20260507145442 | 60 | 232 | 0.0 | 0.0 | 0.00 | 0.00 | 0.00 | 32 | 1026.3 |
| 20260507144936 | 59 | 236 | 0.0 | 0.0 | 0.00 | 0.00 | 0.00 | 29 | 1026.3 |
| 20260507144430 | 58 | 200 | 0.0 | 0.0 | 0.00 | 0.00 | 0.00 | 31 | 1026.3 |
| 20260507143926 | 57 | 284 | 0.0 | 0.0 | 0.00 | 0.00 | 0.00 | 37 | 1025.9 |
| 20260507143421 | 56 | 268 | 0.0 | 0.0 | 0.00 | 0.00 | 0.00 | 42 | 1026.3 |
| 20260507142916 | 56 | 276 | 0.0 | 0.0 | 0.00 | 0.00 | 0.00 | 45 | 1026.3 |
| 20260507142411 | 56 | 271 | 0.0 | 0.0 | 0.00 | 0.00 | 0.00 | 48 | 1026.3 |
| 20260507141906 | 55 | 318 | 0.0 | 0.0 | 0.00 | 0.00 | 0.00 | 52 | 1025.9 |
| 20260507141901 | 55 | 247 | 0.0 | 0.0 | 0.00 | 0.00 | 0.00 | 54 | 1025.9 |
| 20260507140857 | 55 | 339 | 0.0 | 0.0 | 0.00 | 0.00 | 0.00 | 59 | 1025.9 |
| 20260507140352 | 54 | 282 | 0.0 | 0.0 | 0.00 | 0.00 | 0.00 | 64 | 1025.6 |
| 20260507140347 | 54 | 257 | 0.0 | 0.0 | 0.00 | 0.00 | 0.00 | 66 | 1025.9 |
| 20260507135341 | 54 | 274 | 0.0 | 0.0 | 0.00 | 0.00 | 0.00 | 68 | 1025.9 |
| 20260507134835 | 54 | 257 | 0.0 | 0.0 | 0.00 | 0.00 | 0.00 | 69 | 1025.9 |
| 20260507134331 | 53 | 271 | 0.0 | 0.0 | 0.00 | 0.00 | 0.00 | 69 | 1025.6 |
| 20260507133828 | 53 | 265 | 0.0 | 0.0 | 0.00 | 0.00 | 0.00 | 68 | 1025.6 |
| 20260507133821 | 53 | 266 | 0.0 | 0.0 | 0.00 | 0.00 | 0.00 | 68 | 1025.6 |
| 20260507132816 | 53 | 270 | 0.0 | 0.0 | 0.00 | 0.00 | 0.00 | 68 | 1025.6 |
| 20260507132311 | 54 | 270 | 0.0 | 0.0 | 0.00 | 0.00 | 0.00 | 66 | 1025.6 |
| 20260507131805 | 54 | 270 | 0.0 | 0.0 | 0.00 | 0.00 | 0.00 | 66 | 1025.6 |
| 20260507131301 | 54 | 270 | 0.0 | 0.0 | 0.00 | 0.00 | 0.00 | 65 | 1025.6 |
| 20260507130757 | 54 | 270 | 0.0 | 0.0 | 0.00 | 0.00 | 0.00 | 64 | 1025.3 |
| 20260507130747 | 54 | 270 | 0.0 | 0.0 | 0.00 | 0.00 | 0.00 | 62 | 1025.3 |
| 20260507130352 | 54 | 270 | 0.0 | 0.0 | 0.00 | 0.00 | 0.00 | 63 | 1025.3 |
| 20260507125242 | 54 | 270 | 0.0 | 0.0 | 0.00 | 0.00 | 0.00 | 62 | 1025.3 |
| 20260507125236 | 54 | 271 | 0.0 | 0.0 | 0.00 | 0.00 | 0.00 | 61 | 1025.3 |
| 20260507124230 | 54 | 273 | 0.0 | 0.0 | 0.00 | 0.00 | 0.00 | 61 | 1025.3 |
| 20260507123726 | 54 | 270 | 0.0 | 0.0 | 0.00 | 0.00 | 0.00 | 60 | 1025.3 |
| 20260507123220 | 55 | 271 | 0.0 | 0.0 | 0.00 | 0.00 | 0.00 | 60 | 1025.3 |
| 20260507122716 | 55 | 238 | 0.0 | 0.0 | 0.00 | 0.00 | 0.00 | 59 | 1025.3 |
| 20260507122212 | 55 | 248 | 0.0 | 0.0 | 0.00 | 0.00 | 0.00 | 58 | 1025.6 |
| 20260507122205 | 55 | 248 | 0.0 | 0.0 | 0.00 | 0.00 | 0.00 | 59 | 1025.3 |
| 20260507121200 | 55 | 247 | 0.0 | 0.0 | 0.00 | 0.00 | 0.00 | 59 | 1025.3 |
| 20260507120656 | 55 | 275 | 0.0 | 0.0 | 0.00 | 0.00 | 0.00 | 58 | 1025.3 |
| 20260507120648 | 55 | 193 | 0.0 | 0.0 | 0.00 | 0.00 | 0.00 | 59 | 1025.3 |
| 20260507120252 | 55 | 272 | 0.0 | 0.0 | 0.00 | 0.00 | 0.00 | 59 | 1025.3 |
| 20260507115141 | 55 | 205 | 0.0 | 0.0 | 0.00 | 0.00 | 0.00 | 59 | 1025.3 |
| 20260507114637 | 55 | 213 | 0.0 | 0.0 | 0.00 | 0.00 | 0.00 | 58 | 1025.3 |
| 20260507114632 | 55 | 63 | 0.0 | 0.0 | 0.00 | 0.00 | 0.00 | 58 | 1025.3 |
| 20260507113626 | 55 | 320 | 0.0 | 0.0 | 0.00 | 0.00 | 0.00 | 59 | 1025.3 |
| 20260507113121 | 55 | 250 | 0.0 | 0.0 | 0.00 | 0.00 | 0.00 | 59 | 1025.3 |
| 20260507112615 | 55 | 269 | 0.0 | 0.0 | 0.00 | 0.00 | 0.00 | 59 | 1025.3 |
| 20260507112111 | 55 | 252 | 0.0 | 0.0 | 0.00 | 0.00 | 0.00 | 59 | 1025.3 |
| 20260507111605 | 55 | 257 | 0.0 | 0.0 | 0.00 | 0.00 | 0.00 | 61 | 1025.3 |
| 20260507111104 | 55 | 231 | 0.0 | 0.0 | 0.00 | 0.00 | 0.00 | 59 | 1025.3 |
| 20260507111100 | 55 | 296 | 0.0 | 0.0 | 0.00 | 0.00 | 0.00 | 60 | 1025.3 |
| 20260507110050 | 55 | 231 | 0.0 | 0.0 | 0.00 | 0.00 | 0.00 | 58 | 1025.3 |
| 20260507105547 | 55 | 231 | 0.0 | 0.0 | 0.00 | 0.00 | 0.00 | 58 | 1024.8 |
| 20260507105542 | 55 | 231 | 0.0 | 0.0 | 0.00 | 0.00 | 0.00 | 55 | 1025.3 |
| 20260507104535 | 55 | 231 | 0.0 | 0.0 | 0.00 | 0.00 | 0.00 | 55 | 1024.8 |
| 20260507104030 | 55 | 218 | 0.0 | 0.0 | 0.00 | 0.00 | 0.00 | 53 | 1024.8 |
| 20260507103526 | 56 | 227 | 0.0 | 0.0 | 0.00 | 0.00 | 0.00 | 52 | 1025.3 |
| 20260507103020 | 56 | 228 | 0.0 | 0.0 | 0.00 | 0.00 | 0.00 | 51 | 1025.3 |
| 20260507102515 | 56 | 228 | 0.0 | 0.0 | 0.00 | 0.00 | 0.00 | 51 | 1025.3 |
| 20260507102012 | 56 | 234 | 0.0 | 0.0 | 0.00 | 0.00 | 0.00 | 48 | 1025.3 |
| 20260507102007 | 56 | 234 | 0.0 | 0.0 | 0.00 | 0.00 | 0.00 | 48 | 1025.3 |
| 20260507100959 | 56 | 234 | 0.0 | 0.0 | 0.00 | 0.00 | 0.00 | 48 | 1024.8 |
| 20260507100458 | 56 | 230 | 0.0 | 0.0 | 0.00 | 0.00 | 0.00 | 47 | 1025.3 |
| 20260507100451 | 56 | 230 | 0.0 | 0.0 | 0.00 | 0.00 | 0.00 | 47 | 1025.3 |
| 20260507095445 | 57 | 230 | 0.0 | 0.0 | 0.00 | 0.00 | 0.00 | 47 | 1025.3 |
| 20260507094941 | 57 | 230 | 0.0 | 0.0 | 0.00 | 0.00 | 0.00 | 47 | 1025.3 |
| 20260507094436 | 57 | 235 | 0.0 | 0.0 | 0.00 | 0.00 | 0.00 | 47 | 1025.6 |
| 20260507093930 | 57 | 234 | 0.0 | 0.0 | 0.00 | 0.00 | 0.00 | 47 | 1025.3 |
| 20260507093426 | 57 | 233 | 0.0 | 0.0 | 0.00 | 0.00 | 0.00 | 46 | 1025.3 |
| 20260507092920 | 57 | 233 | 0.0 | 0.0 | 0.00 | 0.00 | 0.00 | 45 | 1025.3 |
| 20260507092415 | 57 | 239 | 0.0 | 0.0 | 0.00 | 0.00 | 0.00 | 45 | 1025.3 |
| 20260507091911 | 57 | 224 | 0.0 | 0.0 | 0.00 | 0.00 | 0.00 | 45 | 1025.3 |
| 20260507091404 | 58 | 220 | 0.0 | 0.0 | 0.00 | 0.00 | 0.00 | 45 | 1025.3 |
| 20260507090901 | 58 | 273 | 0.0 | 0.0 | 0.00 | 0.00 | 0.00 | 45 | 1025.3 |
| 20260507090356 | 58 | 266 | 0.0 | 0.0 | 0.00 | 0.00 | 0.00 | 45 | 1025.3 |
| 20260507085849 | 58 | 206 | 0.0 | 0.0 | 0.00 | 0.00 | 0.00 | 44 | 1025.3 |
| 20260507085344 | 58 | 230 | 0.0 | 0.0 | 0.00 | 0.00 | 0.00 | 44 | 1025.3 |
| 20260507084841 | 58 | 225 | 0.0 | 0.0 | 0.00 | 0.00 | 0.00 | 44 | 1025.6 |
| 20260507084432 | 58 | 227 | 0.0 | 0.0 | 0.00 | 0.00 | 0.00 | 43 | 1025.6 |
| 20260507084335 | 58 | 227 | 0.0 | 0.0 | 0.00 | 0.00 | 0.00 | 43 | 1025.3 |
| 20260507084327 | 58 | 207 | 0.0 | 0.0 | 0.00 | 0.00 | 0.00 | 43 | 1025.3 |
| 20260507082819 | 58 | 168 | 0.0 | 0.0 | 0.00 | 0.00 | 0.00 | 43 | 1025.6 |
| 20260507082314 | 58 | 210 | 0.0 | 0.0 | 0.00 | 0.00 | 0.00 | 44 | 1025.6 |
| 20260507081811 | 58 | 221 | 0.0 | 0.0 | 0.00 | 0.00 | 0.00 | 44 | 1025.3 |
| 20260507081304 | 58 | 221 | 0.0 | 0.0 | 0.00 | 0.00 | 0.00 | 44 | 1025.3 |
| 20260507080800 | 58 | 221 | 0.0 | 0.0 | 0.00 | 0.00 | 0.00 | 43 | 1025.3 |
| 20260507080257 | 58 | 221 | 0.0 | 0.0 | 0.00 | 0.00 | 0.00 | 43 | 1025.3 |